Location: *
(28.2408°N, 53.4600°E)
Time: 19:29:53
(UTC+00:00)

NOSS 0 Rocket - Pass Details

Date: 22 September 2019
Orbit: 935 x 955 km, 70.0° (Epoch: 15 October)

Event Time Altitude Azimuth Distance (km) Brightness Sun altitude
Rises 15:24:50 0° 345° (NNW) 3,618 7.3 -14.3°
Reaches altitude 10° 15:27:26 10° 351° (N) 2,673 6.5 -14.9°
Maximum altitude 15:33:30 53° 67° (ENE) 1,150 4.1 -16.2°
Enters shadow 15:38:06 18° 139° (SE) 2,173 5.4 -17.2°
